Location: Plymouth
(43.7570°N, 71.6890°W)
Time: 16:35:00
(UTC-04:00)

Daily predictions for brighter satellites

Satellite Brightness Start Highest point End
(mag) Time Altitude Azimuth Time Altitude Azimuth Time Altitude Azimuth
Cosmos 1766 4.4 19:38:40 10° SSW 19:42:26 50° W 19:46:16 10° N
Cosmos 1766 Rocket 3.9 19:39:01 10° N 19:43:22 46° ENE 19:47:40 10° SSE
Cosmos 1758 3.3 19:40:24 10° S 19:44:21 68° E 19:48:21 10° NNE
Cosmos 2369 Rocket 3.8 19:44:45 10° ESE 19:46:40 12° E 19:48:34 10° ENE
HJ-1C 3.4 19:43:17 10° SSE 19:46:41 79° ENE 19:50:08 10° N
FENGYUN 3A 3.7 19:41:27 10° SSE 19:46:52 85° ENE 19:52:17 10° NNW
Cosmos 1953 2.3 19:45:08 10° S 19:49:10 71° E 19:53:12 10° NNE
Lacrosse 5 3.4 19:47:14 10° W 19:51:53 35° NNW 19:56:33 10° NE
Cosmos 1833 Rocket 2.7 19:49:46 10° NNW 19:55:26 89° WSW 20:01:04 10° SSE
GP-B 3.4 19:54:44 10° SSE 19:58:56 44° E 20:03:10 10° N
Cosmos 2344 4.4 19:54:43 10° WSW 20:02:17 58° NW 20:11:09 10° NE
ATLAS 5 CENTAUR R/B 1.8 19:59:58 10° SSW 20:04:38 83° SE 20:09:49 10° NE
CZ-2D R/B 3.2 20:01:45 10° SSE 20:05:35 65° ENE 20:09:27 10° N
Cosmos 482 Debris 2.2 20:05:06 10° NW 20:06:56 85° NE 20:07:45 27° ESE
Lacrosse 5 rocket 1.4 20:03:00 10° NW 20:06:57 66° SW 20:10:29 11° SE
Cosmos 1939 Rocket 4.2 20:04:26 14° ESE 20:07:03 24° ENE 20:10:24 10° NNE
Cosmos 158 Rocket 4.2 20:02:00 10° NNW 20:07:10 76° WSW 20:12:26 10° SSE
USA 215 4.5 20:03:28 10° E 20:07:33 17° ESE 20:11:37 10° SSE
Meteor 1-29 4.1 20:04:44 10° NE 20:07:35 23° E 20:10:27 10° SSE
Cosmos 1805 4.3 20:04:20 10° SSW 20:08:06 50° W 20:11:56 10° N
ALOS 3.0 20:03:47 10° S 20:08:21 56° W 20:12:58 10° NNW
Cosmos 372 Rocket 4.0 20:04:09 10° SSW 20:09:17 84° WNW 20:14:29 10° NNE
Cosmos 2278 Rocket 4.0 20:05:57 10° WSW 20:11:06 35° NW 20:16:17 10° N
Resurs 01 Rocket 1.8 20:07:21 10° S 20:11:47 79° WSW 20:16:14 10° NNW
Cosmos 1743 Rocket 3.9 20:09:53 10° N 20:14:11 46° ENE 20:18:29 10° SSE
Cosmos 1500 Rocket 4.2 20:10:27 10° N 20:14:23 33° ENE 20:17:18 16° SE
Cosmos 1733 3.1 20:12:06 10° S 20:15:56 68° E 20:19:49 10° NNE
CZ-4C R/B 3.2 20:12:28 10° SSE 20:16:18 21° ESE 20:20:26 10° ENE
USA 186 0.8 20:16:04 23° SSE 20:17:10 55° ENE 20:19:21 10° N
Spot 1 4.4 20:13:08 10° SSE 20:17:50 62° ENE 20:22:49 10° N
Helios 1B rocket 2.7 20:14:42 10° NNE 20:18:41 43° E 20:22:35 10° S
Cosmos 2251 Rocket 3.8 20:14:00 10° NNW 20:19:13 52° ENE 20:23:30 15° SE
COSMOS 2487 4.2 20:17:03 10° NW 20:20:18 34° WSW 20:23:33 10° SSW
BREEZE-M DEB (TANK) 3.0 20:18:54 10° NW 20:21:04 35° NNE 20:22:26 21° ENE
Cosmos 2151 3.9 20:18:52 10° NNE 20:22:36 29° ENE 20:24:19 22° ESE
Cosmos 2100 Rocket 4.0 20:16:51 10° S 20:23:09 74° E 20:29:32 10° NNE
Cosmos 1470 2.8 20:24:14 10° S 20:28:12 81° W 20:32:11 10° N
SAR-Lupe-4 3.5 20:27:03 11° SSE 20:30:29 86° ENE 20:34:05 10° NNW
Cosmos 1408 Rocket 4.4 20:27:56 10° NNW 20:32:18 54° W 20:36:38 10° S
H-2A R/B 4.4 20:32:49 10° SSW 20:36:27 36° W 20:40:08 10° NNW
Tsikada Rocket 4.4 20:31:20 10° N 20:37:15 44° ENE 20:41:02 22° SE
Cosmos 494 Rocket 3.9 20:32:08 10° NNW 20:37:16 75° ENE 20:40:57 19° SSE
TIMED 4.4 20:33:19 10° SSW 20:37:42 89° ESE 20:42:06 10° NNE
YAOGAN 6 3.7 20:37:47 26° ENE 20:38:00 27° ENE 20:41:11 10° NNE
Cosmos 2082 Rocket 3.7 20:34:41 10° NW 20:39:48 36° WSW 20:44:53 10° S
Spot 2 Rocket 4.5 20:34:57 10° S 20:39:53 48° W 20:44:51 10° NNW
Cosmos 1184 Rocket 2.9 20:43:28 10° NNW 20:46:51 76° W 20:48:38 26° S
Cosmos 1340 Rocket 3.8 20:44:36 10° NNW 20:48:28 47° W 20:52:16 10° S
SAR-Lupe-1 4.4 20:46:28 17° S 20:49:06 64° WSW 20:52:41 10° NNW
Cosmos 1802 Rocket 3.9 20:43:19 10° S 20:49:27 89° W 20:55:42 10° N
Helios 1A 3.4 20:45:49 10° S 20:49:55 63° WSW 20:54:06 10° NNW
Cosmos 1842 Rocket 3.4 20:46:13 10° S 20:50:37 79° E 20:55:00 10° N
CZ-4B DEB 2.8 20:49:47 36° S 20:50:55 74° W 20:54:00 10° NNW
Cosmos 389 Rocket 2.3 20:52:52 41° SSE 20:53:55 69° E 20:57:27 10° NNE
SeaSat 1 4.0 20:51:59 10° S 20:56:22 32° WSW 21:00:47 10° NW
Meteor 1-16 Rocket 4.2 20:51:06 10° S 20:56:58 82° E 21:02:57 10° NNE
Envisat 3.0 20:54:15 18° SSE 20:58:07 85° WSW 21:03:14 10° NNW
Cosmos 1356 Rocket 3.4 20:54:40 10° NNW 20:58:46 78° W 21:00:45 29° S
Meteor 1-11 4.1 20:58:11 10° N 21:03:49 87° E 21:07:16 24° S
ERS-1 Rocket 3.0 21:03:10 41° SE 21:04:46 61° ENE 21:09:45 10° N
ISS -2.2 21:01:50 10° W 21:04:50 33° NNW 21:06:01 25° NNE
SL-14 R/B 3.5 21:02:14 10° NNW 21:06:06 65° W 21:07:46 32° SSW
Geosat 4.1 21:03:33 10° NNE 21:08:36 77° WNW 21:13:36 10° SW
Cosmos 2233 Rocket 4.1 21:12:07 38° SE 21:14:00 52° E 21:19:56 10° NNE
Cosmos 1626 3.0 21:12:55 10° N 21:15:34 39° NNE 21:15:34 39° NNE
Sich 1 4.3 21:15:34 10° N 21:18:27 29° NE 21:18:27 29° NE
Cosmos 1864 Rocket 4.5 21:14:32 10° S 21:20:53 89° W 21:27:13 10° N
MetOp-B 4.2 21:20:39 52° ESE 21:21:23 57° ENE 21:26:38 10° N
H-2A R/B 3.1 21:28:33 31° NE 21:28:33 31° NE 21:32:36 10° N
YAOGAN 11 4.1 21:29:48 70° NE 21:29:48 70° NE 21:34:08 10° N
Cosmos 2369 Rocket 2.0 21:24:08 10° SSW 21:29:46 85° ESE 21:35:25 10° NNE
Cosmos 1633 Rocket 4.4 21:26:00 10° N 21:28:39 29° NE 21:28:39 29° NE
Meteor 2-1 Rocket 4.2 21:27:08 21° S 21:31:04 88° W 21:36:44 10° N
Cosmos 2058 3.4 21:28:42 10° NNW 21:32:47 56° W 21:33:13 53° WSW
Cosmos 2221 2.6 21:33:22 72° N 21:33:22 72° N 21:37:21 10° N
Cosmos 1703 3.8 21:31:39 10° N 21:34:51 56° NNW 21:34:51 56° NNW
Lacrosse 5 4.2 21:32:39 10° NW 21:36:11 18° N 21:39:42 10° NE
Terra 3.7 21:39:38 18° NE 21:39:38 18° NE 21:41:40 10° NNE
Cosmos 1833 4.4 21:33:21 10° NNW 21:38:51 52° ENE 21:38:53 52° ENE
SPOT 5 3.0 21:40:47 72° E 21:40:51 72° ENE 21:46:08 10° N
Cosmos 2227 Rocket 4.4 21:43:02 10° NNE 21:44:50 11° NE 21:45:24 11° NE
Cosmos 1943 Rocket 3.2 21:48:52 32° NE 21:48:52 32° NE 21:51:55 10° NNE
CZ-3B DEB 3.7 21:42:36 10° WNW 21:47:31 21° NNW 21:49:27 16° NNE
ATLAS 5 CENTAUR R/B 4.4 21:46:22 10° W 21:50:04 21° NNW 21:54:02 10° NNE
NOAA 11 4.1 21:49:56 76° SSW 21:50:22 84° WSW 21:55:55 10° NNW
H-2A R/B 4.1 21:53:31 19° NNE 21:53:31 19° NNE 21:54:57 10° N
USA 215 3.1 21:44:48 10° NE 21:51:19 69° SE 21:57:49 10° SW
Cosmos 2263 4.1 21:52:39 70° SSW 21:53:21 87° WNW 21:59:04 10° NNE
Cosmos 1805 Rocket 4.3 21:52:05 10° NNW 21:55:42 53° NW 21:55:42 53° NW
CZ-4C R/B 2.5 21:58:49 10° SW 22:04:05 63° NW 22:10:08 10° NNE
Cosmos 1464 Rocket 4.5 22:07:00 47° NE 22:07:00 47° NE 22:11:41 10° NNE
SPOT 1/Viking Rocket 4.0 22:13:12 58° NNW 22:13:12 58° NNW 22:17:24 10° NNW
ARGOS 3.5 22:17:29 60° WNW 22:17:29 60° WNW 22:22:16 10° NNW
USA 267 3.5 22:24:10 58° NE 22:24:26 58° NNE 22:30:49 10° NW
Cosmos 2219 4.2 22:24:19 10° NNW 22:28:11 40° N 22:28:11 40° N
Cosmos 2297 Rocket 4.1 22:58:27 10° N 23:01:13 23° NNE 23:01:13 23° NNE
H-2A R/B 3.8 23:09:10 28° WNW 23:09:10 28° WNW 23:12:11 10° NNW
Terra 4.2 23:18:31 20° NW 23:18:31 20° NW 23:20:06 10° NNW
ATLAS 3B R/B 3.6 23:20:37 44° NNE 23:20:37 44° NNE 23:25:18 10° NNE
Lacrosse 5 4.2 23:16:44 10° NW 23:19:04 19° N 23:19:04 19° N
Cosmos 2227 Rocket 4.0 23:24:39 10° NNW 23:27:14 27° N 23:27:14 27° N
Cosmos 1943 Rocket 4.1 23:30:17 23° NW 23:30:34 24° NW 23:35:03 10° N
USA 215 4.1 23:27:59 10° NE 23:34:09 46° NNW 23:40:18 10° W
